Phoenix-Mesa Gateway Airport, AZ

11:36 PM MST on April 29, 2017 (GMT -0700)
Phoenix-Mesa Gateway Airport

Weather History for KIWA - May, 2013

Change the Weather History Date:

Saturday, May 4, 2013

  Actual Average Record
Temperature  
Mean Temperature 76 °F -  
Max Temperature 93 °F 87 °F 100 °F (2004)
Min Temperature 60 °F 60 °F 50 °F (2001)
Cooling Degree Days 12    
Growing Degree Days 26 (Base 50)    
Moisture  
Dew Point 19 °F    
Average Humidity 13    
Maximum Humidity 27    
Minimum Humidity 6    
Precipitation  
Precipitation 0.00 in - - ()
Sea Level Pressure  
Sea Level Pressure 29.76 in    
Wind  
Wind Speed 7 mph (South)    
Max Wind Speed 15 mph    
Max Gust Speed 21 mph    
Visibility 12 miles    
Events      
Averages and records for this station are not official NWS values.
T = Trace of Precipitation, MM = Missing Value Source: NWS Daily Summary

Daily Weather History Graph

Daily Weather History Graph

Search for Another Location

Airport or City:

Trip Planner

Search our weather history database for the weather conditions in past years. The results will help you decide how hot, cold, wet, or windy it might be!

Date:

Astronomy

May. 04, 2013 Rise Set
Actual Time 5:35 AM MST 7:11 PM MST
Civil Twilight 5:08 AM MST 7:38 PM MST
Nautical Twilight 4:36 AM MST 8:10 PM MST
Astronomical Twilight 4:03 AM MST 8:44 PM MST
Moon 2:20 AM MST (5/4) 2:27 PM MST (5/4)
Length of Visible Light 14h 29m
Length of Day
13h 36m
Waning Crescent, 26% of the Moon is Illuminated
May 4
Waning Crescent
May 9
New
May 17
First Quarter
May 24
Full
May 31
Last Quarter

Hourly Weather History & Observations

Time (MST) Temp. Dew Point Humidity Pressure Visibility Wind Dir Wind Speed Gust Speed Precip Events Conditions
12:15 AM 64.4 °F 15.8 °F 15% 29.81 in 10.0 mi ESE 5.8 mph - N/A   Clear
12:35 AM 64.4 °F 19.4 °F 18% 29.80 in 10.0 mi ESE 6.9 mph - N/A   Clear
12:55 AM 62.6 °F 28.4 °F 27% 29.79 in 10.0 mi ESE 6.9 mph - N/A   Clear
1:15 AM 62.6 °F 26.6 °F 26% 29.79 in 10.0 mi East 6.9 mph - N/A   Clear
1:35 AM 62.6 °F 17.6 °F 18% 29.78 in 10.0 mi East 3.5 mph - N/A   Clear
1:55 AM 62.6 °F 14.0 °F 15% 29.77 in 10.0 mi ESE 4.6 mph - N/A   Clear
2:15 AM 62.6 °F 15.8 °F 16% 29.77 in 10.0 mi ESE 4.6 mph - N/A   Clear
2:35 AM 62.6 °F 21.2 °F 20% 29.77 in 10.0 mi SE 4.6 mph - N/A   Clear
2:55 AM 62.6 °F 21.2 °F 20% 29.77 in 10.0 mi SE 5.8 mph - N/A   Clear
3:15 AM 62.6 °F 19.4 °F 19% 29.77 in 10.0 mi SSE 5.8 mph - N/A   Clear
3:35 AM 62.6 °F 19.4 °F 19% 29.77 in 10.0 mi SSE 6.9 mph - N/A   Clear
3:55 AM 64.4 °F 17.6 °F 16% 29.77 in 10.0 mi SSE 5.8 mph - N/A   Clear
4:15 AM 62.6 °F 23.0 °F 22% 29.76 in 10.0 mi SSE 6.9 mph - N/A   Clear
4:35 AM 60.8 °F 24.8 °F 25% 29.76 in 10.0 mi SSE 6.9 mph - N/A   Clear
4:47 AM 62.6 °F 21.2 °F 20% 29.77 in 20.0 mi Calm Calm - N/A   Mostly Cloudy
4:55 AM 62.6 °F 21.2 °F 20% 29.77 in 10.0 mi ESE 3.5 mph - N/A   Clear
5:15 AM 62.6 °F 19.4 °F 19% 29.77 in 10.0 mi ESE 3.5 mph - N/A   Clear
5:47 AM 62.6 °F 17.6 °F 18% 29.78 in 20.0 mi East 5.8 mph - N/A   Mostly Cloudy
6:51 AM 68.0 °F 19.4 °F 16% 29.79 in 20.0 mi ESE 4.6 mph - N/A   Mostly Cloudy
7:47 AM 73.4 °F 17.6 °F 12% 29.79 in 10.0 mi ENE 5.8 mph - N/A   Mostly Cloudy
8:49 AM 78.8 °F 17.6 °F 10% 29.79 in 10.0 mi ENE 4.6 mph - N/A   Mostly Cloudy
9:50 AM 84.2 °F 19.4 °F 9% 29.79 in 15.0 mi SSE 9.2 mph - N/A   Scattered Clouds
10:47 AM 84.2 °F 17.6 °F 8% 29.79 in 15.0 mi South 3.5 mph - N/A   Scattered Clouds
11:47 AM 87.8 °F 15.8 °F 7% 29.77 in 15.0 mi SSE 6.9 mph - N/A   Scattered Clouds
12:47 PM 91.4 °F 15.8 °F 6% 29.75 in 15.0 mi SW 10.4 mph - N/A   Scattered Clouds
1:47 PM 93.2 °F 17.6 °F 6% 29.73 in 15.0 mi SW 9.2 mph 17.3 mph N/A   Partly Cloudy
2:47 PM 93.2 °F 17.6 °F 6% 29.71 in 15.0 mi WSW 10.4 mph 17.3 mph N/A   Partly Cloudy
3:47 PM 93.2 °F 17.6 °F 6% 29.68 in 15.0 mi WNW 8.1 mph 15.0 mph N/A   Partly Cloudy
4:48 PM 93.2 °F 15.8 °F 6% 29.67 in 15.0 mi WSW 15.0 mph 20.7 mph N/A   Partly Cloudy
5:47 PM 93.2 °F 17.6 °F 6% 29.69 in 15.0 mi West 9.2 mph - N/A   Partly Cloudy
6:47 PM 91.4 °F 17.6 °F 7% 29.66 in 15.0 mi WSW 5.8 mph - N/A   Scattered Clouds
7:47 PM 84.2 °F 15.8 °F 8% 29.69 in 20.0 mi SW 8.1 mph - N/A   Mostly Cloudy
7:55 PM 82.4 °F 15.8 °F 8% 29.70 in 10.0 mi SW 8.1 mph - N/A   Clear
8:15 PM 82.4 °F 17.6 °F 9% 29.71 in 10.0 mi WSW 11.5 mph - N/A   Clear
8:35 PM 80.6 °F 21.2 °F 11% 29.72 in 10.0 mi SW 9.2 mph - N/A   Clear
8:47 PM 80.6 °F 21.2 °F 11% 29.72 in 20.0 mi SW 10.4 mph - N/A   Mostly Cloudy
8:55 PM 80.6 °F 23.0 °F 12% 29.73 in 10.0 mi WSW 8.1 mph - N/A   Clear
9:15 PM 78.8 °F 23.0 °F 13% 29.74 in 10.0 mi WSW 9.2 mph - N/A   Clear
9:35 PM 78.8 °F 23.0 °F 13% 29.75 in 10.0 mi WSW 6.9 mph - N/A   Clear
9:47 PM 78.8 °F 21.2 °F 12% 29.75 in 20.0 mi SW 6.9 mph - N/A   Mostly Cloudy
9:55 PM 78.8 °F 19.4 °F 11% 29.76 in 10.0 mi WSW 5.8 mph - N/A   Clear
10:15 PM 78.8 °F 19.4 °F 11% 29.76 in 10.0 mi SW 3.5 mph - N/A   Clear
10:35 PM 78.8 °F 17.6 °F 10% 29.77 in 10.0 mi South 8.1 mph - N/A   Clear
10:47 PM 84.2 °F 15.8 °F 8% 29.78 in 20.0 mi South 8.1 mph - N/A   Mostly Cloudy
10:55 PM 78.8 °F 14.0 °F 9% 29.78 in 10.0 mi SSW 11.5 mph - N/A   Clear
11:15 PM 78.8 °F 17.6 °F 10% 29.79 in 10.0 mi SSW 9.2 mph - N/A   Clear
11:35 PM 78.8 °F 19.4 °F 11% 29.80 in 10.0 mi SSW 8.1 mph - N/A   Clear
11:55 PM 78.8 °F 15.8 °F 9% 29.80 in 10.0 mi SSW 5.8 mph - N/A   Clear